GW3791 Weather Reports


time (UTC)temp
C
wind
direction
speed
KPH
gust
KPH
rain 1hr
cm
rain 24hr
cm
rain mn
cm
humidity
%
barometer
mb
20260504050645 9 232 0.0 4.8 0.00 0.00 0.00 52 1013.1
20260504050142 9 304 4.8 17.7 0.00 0.00 0.00 50 1012.7
20260504045640 9 269 3.2 9.7 0.00 0.00 0.00 51 1012.9
20260504045140 9 194 3.2 4.8 0.00 0.00 0.00 51 1012.9
20260504044638 9 250 3.2 4.8 0.00 0.00 0.00 52 1013.0
20260504044134 9 344 0.0 4.8 0.00 0.00 0.00 52 1012.8
20260504043632 9 317 1.6 9.7 0.00 0.00 0.00 50 1012.7
20260504043129 9 87 1.6 8.0 0.00 0.00 0.00 51 1012.9
20260504042626 9 299 0.0 4.8 0.00 0.00 0.00 51 1012.8
20260504042123 9 352 3.2 4.8 0.00 0.00 0.00 51 1012.8
20260504041618 9 114 0.0 6.4 0.00 0.00 0.00 52 1012.8
20260504041115 9 173 0.0 3.2 0.00 0.00 0.00 50 1012.6
20260504040612 9 41 4.8 4.8 0.00 0.00 0.00 50 1012.4
20260504040109 9 322 1.6 6.4 0.00 0.00 0.00 49 1012.4
20260504035606 10 134 0.0 6.4 0.00 0.00 0.00 50 1012.4
20260504035102 10 77 0.0 4.8 0.00 0.00 0.00 48 1012.4
20260504034600 9 121 1.6 4.8 0.00 0.00 0.00 49 1012.5
20260504034056 9 33 3.2 3.2 0.00 0.00 0.00 50 1012.5
20260504033554 9 102 0.0 4.8 0.00 0.00 0.00 49 1012.4
20260504033051 9 328 3.2 3.2 0.00 0.00 0.00 50 1012.5
20260504032548 9 76 0.0 3.2 0.00 0.00 0.00 50 1012.5
20260504032045 9 165 1.6 4.8 0.00 0.00 0.00 50 1012.5
20260504031542 9 312 0.0 8.0 0.00 0.00 0.00 49 1012.5
20260504031038 9 320 0.0 4.8 0.00 0.00 0.00 50 1012.6
20260504030536 9 69 1.6 3.2 0.00 0.00 0.00 50 1012.5
20260504030032 9 129 0.0 3.2 0.00 0.00 0.00 49 1012.5
20260504025529 9 174 0.0 3.2 0.00 0.00 0.00 50 1012.3
20260504025026 9 72 1.6 4.8 0.00 0.00 0.00 51 1012.4
20260504024523 8 71 3.2 8.0 0.00 0.00 0.00 50 1012.5
20260504024020 8 293 0.0 1.6 0.00 0.00 0.00 51 1012.7
20260504023516 8 38 0.0 3.2 0.00 0.00 0.00 52 1012.6
20260504023012 8 106 0.0 3.2 0.00 0.00 0.00 51 1012.6
20260504022508 8 44 0.0 3.2 0.00 0.00 0.00 50 1012.6
20260504022005 8 135 3.2 3.2 0.00 0.00 0.00 52 1012.6
20260504021502 9 63 0.0 3.2 0.00 0.00 0.00 49 1012.7
20260504020959 9 58 3.2 4.8 0.00 0.00 0.00 49 1012.5
20260504020456 9 45 1.6 3.2 0.00 0.00 0.00 49 1012.7
20260504015953 9 89 0.0 3.2 0.00 0.00 0.00 49 1012.4
20260504015449 9 111 3.2 4.8 0.00 0.00 0.00 50 1012.6
20260504014944 9 60 0.0 3.2 0.00 0.00 0.00 47 1012.5
20260504014441 9 53 0.0 1.6 0.00 0.00 0.00 48 1012.5
20260504013938 9 25 1.6 1.6 0.00 0.00 0.00 49 1012.4
20260504013437 9 40 0.0 3.2 0.00 0.00 0.00 48 1012.3
20260504012932 9 231 0.0 6.4 0.00 0.00 0.00 48 1012.4
20260504012430 9 135 0.0 3.2 0.00 0.00 0.00 49 1012.5
20260504011928 9 39 1.6 3.2 0.00 0.00 0.00 49 1012.3
20260504011424 9 66 0.0 4.8 0.00 0.00 0.00 49 1012.2
20260504010920 10 51 0.0 3.2 0.00 0.00 0.00 48 1012.2
20260504010416 10 113 0.0 4.8 0.00 0.00 0.00 48 1012.1
20260504005913 10 91 0.0 4.8 0.00 0.00 0.00 48 1012.1
20260504005409 10 115 1.6 4.8 0.00 0.00 0.00 45 1012.0
20260504004907 10 93 3.2 4.8 0.00 0.00 0.00 44 1012.1
20260504004405 10 116 1.6 4.8 0.00 0.00 0.00 44 1012.0
20260504003901 10 114 1.6 3.2 0.00 0.00 0.00 44 1012.1
20260504003358 10 118 1.6 4.8 0.00 0.00 0.00 45 1011.6
20260504002854 10 130 1.6 4.8 0.00 0.00 0.00 45 1011.7
20260504002351 10 118 1.6 3.2 0.00 0.00 0.00 45 1011.4
20260504001849 10 119 1.6 4.8 0.00 0.00 0.00 45 1011.7
20260504001346 11 119 0.0 3.2 0.00 0.00 0.00 45 1011.6
20260504000842 11 186 0.0 1.6 0.00 0.00 0.00 42 1011.5
20260504000340 11 147 0.0 3.2 0.00 0.00 0.00 40 1011.4
20260503235837 11 144 0.0 0.0 0.00 0.00 0.00 40 1011.5
20260503235335 11 129 0.0 4.8 0.00 0.00 0.00 39 1011.3
20260503234832 11 75 1.6 3.2 0.00 0.00 0.00 40 1011.3
20260503234330 12 130 0.0 3.2 0.00 0.00 0.00 38 1011.2
20260503233827 12 79 0.0 3.2 0.00 0.00 0.00 38 1011.2
20260503233323 12 237 0.0 3.2 0.00 0.00 0.00 39 1011.1
20260503232820 12 233 0.0 8.0 0.00 0.00 0.00 38 1011.0
20260503232317 12 274 8.0 8.0 0.00 0.00 0.00 37 1011.1
20260503231815 13 241 3.2 8.0 0.00 0.00 0.00 36 1011.0
20260503231312 13 131 0.0 6.4 0.00 0.00 0.00 36 1010.9
20260503230808 13 294 1.6 9.7 0.00 0.00 0.00 38 1010.9
20260503230305 13 324 3.2 11.3 0.00 0.00 0.00 35 1011.1
20260503225802 13 268 8.0 8.0 0.00 0.00 0.00 36 1010.6
20260503225258 13 273 4.8 14.5 0.00 0.00 0.00 34 1010.7
20260503224755 13 275 3.2 8.0 0.00 0.00 0.00 35 1010.9
20260503224252 13 292 4.8 11.3 0.00 0.00 0.00 37 1010.9
20260503223750 13 141 8.0 11.3 0.00 0.00 0.00 35 1010.5
20260503223247 13 254 4.8 9.7 0.00 0.00 0.00 36 1010.7
20260503222743 13 326 8.0 11.3 0.00 0.00 0.00 35 1010.6
20260503222241 13 343 4.8 6.4 0.00 0.00 0.00 34 1010.6
20260503221740 13 171 4.8 8.0 0.00 0.00 0.00 32 1010.6
20260503221237 13 314 8.0 8.0 0.00 0.00 0.00 32 1010.5
20260503220733 13 289 3.2 12.9 0.00 0.00 0.00 33 1010.6
20260503220230 13 182 3.2 14.5 0.00 0.00 0.00 34 1010.6
20260503215727 13 255 4.8 17.7 0.00 0.00 0.00 31 1010.7
20260503215224 14 304 9.7 19.3 0.00 0.00 0.00 31 1010.5
20260503214723 14 267 6.4 9.7 0.00 0.00 0.00 31 1010.4
20260503214219 13 316 6.4 11.3 0.00 0.00 0.00 33 1010.5
20260503213717 14 307 4.8 9.7 0.00 0.00 0.00 31 1010.6
20260503213214 13 306 4.8 11.3 0.00 0.00 0.00 32 1010.6
20260503212711 14 212 4.8 12.9 0.00 0.00 0.00 31 1010.5
20260503212209 14 234 4.8 12.9 0.00 0.00 0.00 30 1010.5
20260503211706 14 342 3.2 11.3 0.00 0.00 0.00 32 1010.6
20260503211201 14 203 3.2 11.3 0.00 0.00 0.00 30 1010.5
20260503210657 14 313 6.4 16.1 0.00 0.00 0.00 31 1010.7
20260503210154 14 312 6.4 16.1 0.00 0.00 0.00 31 1010.4
20260503205649 15 191 8.0 19.3 0.00 0.00 0.00 30 1010.5
20260503205146 14 293 11.3 14.5 0.00 0.00 0.00 32 1010.5
20260503204643 15 190 4.8 11.3 0.00 0.00 0.00 30 1010.5
20260503204140 14 297 9.7 14.5 0.00 0.00 0.00 31 1010.5
20260503203637 14 208 3.2 27.4 0.00 0.00 0.00 30 1010.4
20260503203135 15 261 6.4 17.7 0.00 0.00 0.00 29 1010.9
20260503202632 14 38 6.4 17.7 0.00 0.00 0.00 30 1010.7
20260503202130 14 323 6.4 27.4 0.00 0.00 0.00 30 1010.9
20260503201628 15 302 4.8 12.9 0.00 0.00 0.00 28 1010.9
20260503201125 15 317 8.0 16.1 0.00 0.00 0.00 29 1010.9
20260503200621 14 286 12.9 19.3 0.00 0.00 0.00 29 1011.0
20260503200118 13 243 8.0 17.7 0.00 0.00 0.00 32 1010.6
20260503195615 13 307 6.4 16.1 0.00 0.00 0.00 33 1010.9
20260503195112 13 300 11.3 14.5 0.00 0.00 0.00 31 1011.2
20260503194610 14 195 4.8 9.7 0.00 0.00 0.00 34 1011.2
20260503194109 12 310 6.4 8.0 0.00 0.00 0.00 35 1011.2
20260503193607 12 292 6.4 20.9 0.00 0.00 0.00 32 1011.3
20260503193102 12 325 11.3 29.0 0.00 0.00 0.00 33 1011.0
20260503192558 13 298 6.4 11.3 0.00 0.00 0.00 32 1011.1
20260503192054 13 304 6.4 19.3 0.00 0.00 0.00 33 1011.3
20260503191551 13 162 6.4 16.1 0.00 0.00 0.00 33 1011.1
20260503191048 12 305 8.0 14.5 0.00 0.00 0.00 35 1011.2
20260503190545 12 275 8.0 19.3 0.00 0.00 0.00 33 1011.2
20260503190042 11 297 3.2 17.7 0.00 0.00 0.00 35 1011.3
20260503185538 12 324 11.3 19.3 0.00 0.00 0.00 35 1011.4
20260503185039 11 282 4.8 16.1 0.00 0.00 0.00 35 1011.6
20260503184535 12 283 12.9 14.5 0.00 0.00 0.00 36 1011.7
20260503184032 12 259 6.4 19.3 0.00 0.00 0.00 33 1011.5
20260503183528 12 158 4.8 16.1 0.00 0.00 0.00 37 1011.5
20260503183025 11 20 3.2 9.7 0.00 0.00 0.00 36 1012.0
20260503182524 12 269 6.4 11.3 0.00 0.00 0.00 35 1011.5
20260503182021 11 311 9.7 17.7 0.00 0.00 0.00 39 1011.6
20260503181518 12 212 6.4 12.9 0.00 0.00 0.00 35 1011.7
20260503181014 11 226 4.8 16.1 0.00 0.00 0.00 35 1011.6
20260503180512 11 272 9.7 14.5 0.00 0.00 0.00 36 1011.7
20260503180009 10 297 6.4 25.7 0.00 0.00 0.00 37 1011.5
20260503175507 11 280 11.3 17.7 0.00 0.00 0.00 36 1011.8
20260503175003 11 256 4.8 19.3 0.00 0.00 0.00 38 1011.9
20260503174501 11 67 3.2 11.3 0.00 0.00 0.00 36 1011.9
20260503173956 12 288 8.0 14.5 0.00 0.00 0.00 37 1012.0
20260503173452 11 247 4.8 22.5 0.00 0.00 0.00 40 1012.0
20260503172949 11 260 6.4 16.1 0.00 0.00 0.00 39 1011.9
20260503172446 11 269 6.4 19.3 0.00 0.00 0.00 37 1011.9
20260503171943 11 305 6.4 16.1 0.00 0.00 0.00 39 1012.1
20260503171439 12 1 6.4 11.3 0.00 0.00 0.00 40 1012.0
20260503170937 11 204 4.8 14.5 0.00 0.00 0.00 40 1011.9
20260503170433 10 336 8.0 14.5 0.00 0.00 0.00 41 1012.2
20260503150825 7 263 4.8 8.0 0.00 0.00 0.00 52 1012.8
20260503150321 7 280 4.8 8.0 0.00 0.00 0.00 51 1012.8
20260503140246 6 294 8.0 14.5 0.00 0.00 0.00 57 1012.6
20260503131215 7 278 6.4 11.3 0.00 0.00 0.00 58 1012.7
20260503130713 6 244 8.0 20.9 0.00 0.00 0.00 57 1012.7
20260503130210 7 300 11.3 14.5 0.00 0.00 0.00 58 1012.4
20260503120136 5 299 6.4 9.7 0.00 0.00 0.00 64 1012.3
20260503110557 5 281 4.8 6.4 0.00 0.00 0.00 69 1012.1
20260503090438 4 337 8.0 11.3 0.00 0.00 0.00 66 1011.1
20260503081358 5 43 3.2 9.7 0.00 0.00 0.00 63 1011.3
20260503080854 5 113 4.8 12.9 0.00 0.00 0.00 62 1011.3
20260503080347 5 109 6.4 11.3 0.00 0.00 0.00 61 1011.1
20260503072823 5 11 6.4 9.7 0.00 0.00 0.00 59 1011.0
20260503072320 5 320 9.7 20.9 0.00 0.00 0.00 59 1010.7
20260503071816 5 49 6.4 9.7 0.00 0.00 0.00 60 1010.7
20260503071313 5 2 4.8 9.7 0.00 0.00 0.00 57 1011.0
20260503070809 6 96 3.2 8.0 0.00 0.00 0.00 58 1011.0
20260503070302 6 34 3.2 11.3 0.00 0.00 0.00 56 1010.9
20260503060221 6 298 3.2 6.4 0.00 0.00 0.00 59 1011.1
20260503054708 6 59 3.2 16.1 0.00 0.00 0.00 58 1011.4
20260503054205 6 279 8.0 9.7 0.00 0.00 0.00 58 1011.3
20260503053703 6 294 0.0 4.8 0.00 0.00 0.00 58 1011.1
20260503053201 6 307 1.6 6.4 0.00 0.00 0.00 59 1011.2
20260503052657 6 313 6.4 6.4 0.00 0.00 0.00 58 1011.4